Location: Cahoon Acres
(40.8736°N, 111.8994°W)
Time: 16:19:11
(UTC+00:00)

Courier 1B - Visible Passes

Search period start: 06 June 2020 00:00
Search period end: 16 June 2020 00:00
Orbit: 963 x 1209 km, 28.3° (Epoch: 05 June)

Date Brightness Start Highest point End Pass type
(mag) Time Alt. Az. Time Alt. Az. Time Alt. Az.
06 Jun 8.9 03:55:35 10° SSW 04:00:10 19° SSE 04:03:38 13° SE visible
06 Jun 8.9 05:47:21 10° SW 05:50:35 23° SSW 05:50:35 23° SSW visible
07 Jun 8.5 04:54:00 10° SW 04:59:42 27° S 05:00:36 26° SSE visible
07 Jun 9.7 06:46:59 10° WSW 06:47:31 12° WSW 06:47:31 12° WSW visible
08 Jun 8.7 04:00:49 10° SW 04:06:07 24° SSE 04:10:25 14° ESE visible
08 Jun 8.8 05:53:24 10° WSW 05:57:19 26° SSW 05:57:19 26° SSW visible
09 Jun 8.5 04:59:55 10° SW 05:05:45 29° S 05:06:58 28° SSE visible
09 Jun 9.7 06:53:25 10° WSW 06:53:51 12° WSW 06:53:51 12° WSW visible
10 Jun 8.6 04:06:33 10° SW 04:12:08 28° S 04:16:29 15° SE visible
10 Jun 8.9 05:59:43 10° WSW 06:03:22 24° SW 06:03:22 24° SW visible
11 Jun 8.5 05:06:07 10° WSW 05:11:48 28° S 05:12:49 27° S visible
12 Jun 8.5 04:12:37 10° WSW 04:18:12 28° S 04:22:12 17° SE visible
12 Jun 9.2 06:06:19 10° WSW 06:09:05 19° SW 06:09:05 19° SW visible
13 Jun 8.7 05:12:34 10° WSW 05:17:52 24° S 05:18:25 24° S visible
14 Jun 8.7 04:18:55 10° WSW 04:24:16 26° S 04:27:45 18° SSE visible
14 Jun 9.5 06:13:30 10° SW 06:14:37 13° SW 06:14:37 13° SW visible
15 Jun 8.6 03:25:20 10° WSW 03:30:43 27° S 03:36:17 10° SE visible
15 Jun 9.0 05:19:25 10° WSW 05:23:53 19° SSW 05:23:57 19° SSW visible
